Weather in Snovitsy

Russia / Vladimir Oblast     56°10′24″N   40°21′14″E
temp.,
°C
wind,
m/s
gust,
m/s
humid.,
%
clouds,
%
prec.,
mm/h
press.,
hPa
HPBL,
m
5 august, thu
thu500:00+15w115943 0.0 101711
03:00+15ssw015965 0.0 101711
06:00+15ssw126298 0.0 101850
09:00+19s225185 0.0 1018391
12:00+24ssw124042 0.0 10171930
15:00+21se2349100 0.0 101664
18:00+22se4747100 0.0 1015384
21:00+16wnw1187100 0.6 101621
6 august, fri
fri600:00+15e3787100 0.2 1015145
03:00+15ese2680100 0.3 1014139
06:00+15sse3787100 0.3 1013184
09:00+16s51093100 0.9 1014375
12:00+16sse4896100 1.0 1014302
15:00+15se3797100 8.8 1014284
18:00+15e3495100 1.3 1013106
21:00+15e4895100 1.3 1013174
7 august, sat
sat700:00+16ene41294100 0.1 1012345
03:00+15e5995100 0.3 1012250
06:00+16ese4997100 1.4 1011283
09:00+20se468072 3.2 1012445
12:00+23sse457192 1.1 1012538
15:00+20se3589100 2.6 1012167
18:00+24ene3473100 0.0 1012210
21:00+21e4674100 0.0 101195
8 august, sun
sun800:00+20se41464100 0.0 1011303
03:00+19sse4136192 0.0 1011265
06:00+18s3469100 0.0 101170
09:00+22ssw356094 0.1 1012345
12:00+21ssw2376100 0.2 101273
15:00+22ssw3479100 1.0 1013460
18:00+23wsw366814 0.1 10131061
21:00+18w33750 0.1 101438
9 august, mon
mon900:00+16w33810 0.0 101532
03:00+15w348794 0.0 101562
06:00+15w258738 0.0 1015145
09:00+20w356771 0.0 1016691
12:00+24wnw565249 0.0 10151765
15:00+24nw454894 0.0 10151710
18:00+24nw34535 0.0 1014360
21:00+19nw22645 0.0 101515